[[{"header":{"parameterUnit":"m.s-1","parameterCategory":1,"la1":30.2991,"la2":30.254,"lo1":-89.0895,"lo2":-89.0444,"dy":0.0017,"dx":0.0017,"nx":28,"ny":28,"refTime":"2025-01-21T03:00:00:Z","depth":0,"parameterNumber":2,"parameterNumberName":"U-component_of_WINDS"},"data":[0,0,0,0,0,0,0,0,0,0,0,0,0,0,0,0,0,0,0,0,0,0,0,0,0,0,0,0,0,0,0,0,0,0,0,0,0,0,0,0,0,0,0,0,0,0,0,0,0,0,0,0,0,0,0,0,0,0,-1.5462,-1.5462,0,-1.5465,-1.5465,-1.5465,-1.5433,-1.5432,-1.5431,-1.543,-1.5434,-1.5435,-1.5436,0,0,0,0,0,0,0,0,0,0,0,0,0,-1.543,-1.5431,-1.5462,-1.5462,-1.5462,-1.5465,-1.5465,-1.5465,-1.5433,-1.5432,-1.5431,-1.543,-1.5434,-1.5435,-1.5436,0,0,0,0,0,0,0,0,0,0,0,0,0,-1.544,-1.5431,-1.5462,-1.5446,-1.5445,-1.5465,-1.5465,-1.5465,-1.5433,-1.5432,-1.5431,-1.5429,-1.5433,-1.5435,-1.5436,-1.5471,0,0,-1.544,-1.5441,0,0,0,0,0,0,0,0,-1.5439,-1.5441,-1.5449,-1.5448,-1.5446,-1.5447,-1.5455,-1.5467,-1.5434,-1.5438,-1.543,-1.5429,-1.544,-1.544,-1.5444,-1.5471,-1.5471,-1.544,-1.5441,-1.5442,-1.5442,0,0,0,0,0,0,0,-1.5438,-1.544,-1.5463,-1.5449,-1.5447,-1.544,-1.544,-1.5457,-1.5446,-1.5437,-1.5435,-1.5436,-1.5439,-1.5442,-1.5444,-1.5471,-1.544,-1.5442,-1.5443,-1.5443,-1.5527,-1.5528,0,0,0,0,0,0,-1.544,-1.544,-1.5463,-1.5463,-1.5439,-1.5441,-1.5441,-1.5448,-1.5446,-1.5444,-1.5437,-1.5434,-1.5441,-1.5442,-1.5444,-1.5484,-1.5442,-1.5443,-1.5444,-1.5525,-1.5527,-1.5529,0,0,0,0,0,0,-1.5439,-1.5442,-1.5463,-1.5451,-1.5453,-1.5443,-1.5451,-1.5449,-1.5453,-1.5445,-1.5443,-1.5443,-1.544,-1.5442,-1.5464,-1.5484,-1.5444,-1.5445,-1.5524,-1.5526,-1.5528,-1.5565,0,0,0,0,0,0,-1.5438,-1.5442,-1.5455,-1.5451,-1.5454,-1.5483,-1.5452,-1.545,-1.5455,-1.5452,-1.545,-1.5449,-1.5439,-1.5462,-1.5466,-1.5485,-1.5446,-1.5522,-1.5525,-1.5527,-1.5562,-1.5568,-1.5573,0,0,0,0,0,-1.5437,-1.5466,-1.5456,-1.5459,-1.547,-1.5484,-1.5486,-1.5473,-1.5457,-1.547,-1.5465,-1.5449,-1.5481,-1.5465,-1.5468,-1.5488,-1.5521,-1.5524,-1.5527,-1.5559,-1.5567,-1.5573,0,0,0,0,0,0,-1.5473,-1.5465,-1.5454,-1.5482,-1.5484,-1.5479,-1.5495,-1.5482,-1.5489,-1.5485,-1.547,-1.547,-1.5495,-1.5494,-1.5476,-1.5521,-1.5498,-1.5502,-1.5521,-1.5528,-1.5534,-1.5534,-1.5447,0,0,0,0,0,-1.5484,-1.5496,-1.5489,-1.5514,-1.5516,-1.5505,-1.5511,-1.5501,-1.5503,-1.5504,-1.5501,-1.5503,-1.5513,-1.5521,-1.553,-1.5561,-1.5561,-1.5577,-1.5582,-1.5587,-1.5591,-1.5607,-1.5614,-1.5539,-1.5539,-1.5539,0,0,-1.5507,-1.5504,-1.5513,-1.5521,-1.5522,-1.5535,-1.5506,-1.5522,-1.5531,-1.5506,-1.5527,-1.5525,-1.5526,-1.5554,-1.5565,-1.5553,-1.5611,-1.5591,-1.5595,-1.5596,-1.5611,-1.5618,-1.5625,-1.5541,-1.5541,-1.554,0,0,-1.5555,-1.5554,-1.5575,-1.5576,-1.5577,-1.5569,-1.5575,-1.5571,-1.5569,-1.5589,-1.5571,-1.5582,-1.56,-1.5602,-1.5606,-1.5654,-1.564,-1.5658,-1.5687,-1.5703,-1.5709,-1.5715,-1.5732,-1.5738,-1.5661,-1.5661,-1.5661,0,-1.5584,-1.5603,-1.5588,-1.5604,-1.5609,-1.5586,-1.5607,-1.5608,-1.5612,-1.5616,-1.5602,-1.5624,-1.5624,-1.5651,-1.5663,-1.5666,-1.5672,-1.5658,-1.571,-1.5715,-1.5719,-1.5736,-1.5742,-1.5664,-1.5663,-1.5663,-1.5663,0,-1.5638,-1.5651,-1.5668,-1.5672,-1.5678,-1.5697,-1.5685,-1.5693,-1.5682,-1.5676,-1.5698,-1.5696,-1.5704,-1.571,-1.57,-1.5735,-1.5728,-1.5712,-1.5688,-1.5729,-1.5744,-1.575,-1.5667,-1.5666,-1.5665,-1.5665,0,0,-1.571,-1.5704,-1.5711,-1.5712,-1.5711,-1.5721,-1.5738,-1.5746,-1.5753,-1.5756,-1.5771,-1.5786,-1.5772,-1.5776,-1.5765,-1.578,-1.5818,-1.5762,-1.5762,-1.5773,-1.5857,-1.5869,-1.5877,-1.5808,-1.5809,-1.581,-1.5857,0,-1.5757,-1.5787,-1.5773,-1.5804,-1.5816,-1.5794,-1.581,-1.5811,-1.5806,-1.5815,-1.581,-1.5821,-1.5801,-1.5803,-1.5816,-1.5811,-1.5835,-1.5807,-1.5822,-1.5822,-1.5822,-1.5884,-1.5897,-1.5942,-1.5863,-1.5864,-1.5864,0,-1.5817,-1.5822,-1.5854,-1.585,-1.5854,-1.5868,-1.5874,-1.5883,-1.5884,-1.5879,-1.5883,-1.5869,-1.5886,-1.5862,-1.5885,-1.5867,-1.5872,-1.587,-1.5872,-1.5873,-1.5846,-1.5888,-1.5955,-1.5962,-1.5873,-1.5873,-1.5872,0,-1.5866,-1.5881,-1.5902,-1.5903,-1.5899,-1.5909,-1.5908,-1.5907,-1.5912,-1.5917,-1.5921,-1.5928,-1.5932,-1.5938,-1.5927,-1.591,-1.5952,-1.5926,-1.5948,-1.5949,-1.5959,-1.5958,-1.6028,-1.5961,-1.5961,-1.5961,-1.5961,0,-1.5921,-1.5941,-1.5924,-1.5937,-1.5959,-1.5943,-1.5966,-1.5962,-1.5961,-1.5973,-1.5955,-1.5967,-1.5951,-1.5961,-1.5952,-1.5973,-1.5975,-1.5972,-1.5969,-1.5974,-1.5974,-1.5977,-1.5974,-1.5963,-1.5963,-1.5962,-1.5962,0,-1.598,-1.5969,-1.599,-1.5984,-1.5983,-1.6,-1.5994,-1.6006,-1.5999,-1.6015,-1.6018,-1.6007,-1.6018,-1.6007,-1.6018,-1.6012,-1.604,-1.6032,-1.6039,-1.6037,-1.606,-1.6058,-1.6135,-1.6144,-1.6071,-1.6072,-1.6073,0,-1.6016,-1.6031,-1.6026,-1.6032,-1.6032,-1.6043,-1.6048,-1.6033,-1.6039,-1.604,-1.6052,-1.6061,-1.6068,-1.6086,-1.608,-1.6087,-1.6081,-1.6107,-1.6082,-1.6086,-1.6081,-1.6081,-1.6082,-1.6112,-1.6113,-1.6114,-1.6114,0,-1.608,-1.6074,-1.6082,-1.6087,-1.6094,-1.6098,-1.61,-1.6107,-1.6091,-1.6099,-1.611,-1.6115,-1.6125,-1.6134,-1.614,-1.6139,-1.6125,-1.6122,-1.6128,-1.6133,-1.6136,-1.6135,-1.6054,-1.6121,-1.612,-1.612,-1.6119,-1.6119,-1.6129,-1.6141,-1.614,-1.6149,-1.6149,-1.6151,-1.6162,-1.6156,-1.6165,-1.6171,-1.6162,-1.6175,-1.6175,-1.6181,-1.6182,-1.6192,-1.6181,-1.6189,-1.6191,-1.6193,-1.6196,-1.6134,-1.6193,-1.6192,-1.6192,-1.6192,-1.6192,0,-1.6193,-1.619,-1.6199,-1.6203,-1.621,-1.6194,-1.6196,-1.6203,-1.6215,-1.6216,-1.6222,-1.6234,-1.6243,-1.6237,-1.6245,-1.6254,-1.6247,-1.6256,-1.6256,-1.6256,-1.6206,-1.62,-1.6262,-1.6262,-1.6262,-1.6262,-1.6262,-1.6262,-1.6227,-1.6247,-1.624,-1.626,-1.6257,-1.6269,-1.6272,-1.6274,-1.6274,-1.6288,-1.6296,-1.6291,-1.6289,-1.6296,-1.6304,-1.6302,-1.6305,-1.6317,-1.6313,-1.6266,-1.6259,-1.6253,-1.6248,-1.6318,-1.6318,-1.6362,-1.6362,-1.6362]},{"header":{"parameterUnit":"m.s-1","parameterCategory":1,"la1":30.2991,"la2":30.254,"lo1":-89.0895,"lo2":-89.0444,"dy":0.0017,"dx":0.0017,"nx":28,"ny":28,"refTime":"2025-01-21T03:00:00:Z","depth":0,"parameterNumber":3,"parameterNumberName":"V-component_of_WINDS"},"data":[0,0,0,0,0,0,0,0,0,0,0,0,0,0,0,0,0,0,0,0,0,0,0,0,0,0,0,0,0,0,0,0,0,0,0,0,0,0,0,0,0,0,0,0,0,0,0,0,0,0,0,0,0,0,0,0,0,0,-5.6759,-5.676,0,-5.683,-5.6831,-5.6832,-5.6806,-5.6805,-5.6803,-5.6802,-5.687,-5.6873,-5.6876,0,0,0,0,0,0,0,0,0,0,0,0,0,-5.6595,-5.6599,-5.6759,-5.676,-5.6761,-5.683,-5.6831,-5.6832,-5.6807,-5.6805,-5.6803,-5.6801,-5.6869,-5.6872,-5.6876,0,0,0,0,0,0,0,0,0,0,0,0,0,-5.6666,-5.66,-5.6759,-5.6756,-5.6757,-5.683,-5.6831,-5.6832,-5.6807,-5.6805,-5.6802,-5.68,-5.6867,-5.6872,-5.6877,-5.6955,0,0,-5.6892,-5.6894,0,0,0,0,0,0,0,0,-5.6662,-5.6672,-5.6756,-5.6757,-5.6757,-5.6807,-5.6798,-5.6873,-5.6808,-5.6788,-5.6802,-5.6799,-5.685,-5.6857,-5.6875,-5.6958,-5.6961,-5.6892,-5.6895,-5.6897,-5.6899,0,0,0,0,0,0,0,-5.6658,-5.6669,-5.6787,-5.6757,-5.6758,-5.675,-5.6758,-5.6812,-5.6831,-5.6789,-5.6788,-5.6797,-5.685,-5.687,-5.6876,-5.6962,-5.6892,-5.6897,-5.69,-5.6902,-5.7113,-5.7115,0,0,0,0,0,0,-5.6653,-5.6665,-5.6785,-5.6789,-5.6703,-5.6755,-5.6764,-5.6793,-5.6831,-5.6834,-5.6799,-5.6795,-5.6863,-5.6871,-5.6879,-5.6973,-5.6897,-5.6902,-5.6905,-5.711,-5.7113,-5.7116,0,0,0,0,0,0,-5.665,-5.6664,-5.6782,-5.6727,-5.6741,-5.6761,-5.6794,-5.6796,-5.6816,-5.6838,-5.6841,-5.6816,-5.6862,-5.6872,-5.6937,-5.6975,-5.6904,-5.6909,-5.7107,-5.7111,-5.7115,-5.7161,0,0,0,0,0,0,-5.6645,-5.6663,-5.6694,-5.6728,-5.6744,-5.684,-5.6797,-5.6799,-5.6825,-5.6822,-5.6855,-5.6858,-5.686,-5.6929,-5.6941,-5.698,-5.6913,-5.7103,-5.7109,-5.7113,-5.7157,-5.7167,-5.7175,0,0,0,0,0,-5.6639,-5.6703,-5.6695,-5.671,-5.6784,-5.6842,-5.6851,-5.6854,-5.6829,-5.6859,-5.6873,-5.6857,-5.6969,-5.6936,-5.695,-5.699,-5.7101,-5.7107,-5.7113,-5.7152,-5.7165,-5.7175,0,0,0,0,0,0,-5.667,-5.6707,-5.6699,-5.6776,-5.6807,-5.6838,-5.6876,-5.6867,-5.6904,-5.6899,-5.6899,-5.6907,-5.6974,-5.6988,-5.6952,-5.7068,-5.7031,-5.704,-5.7056,-5.7068,-5.7077,-5.7072,-5.6917,0,0,0,0,0,-5.6686,-5.6733,-5.6761,-5.6826,-5.6842,-5.6857,-5.6882,-5.6882,-5.6913,-5.6925,-5.6944,-5.6973,-5.7015,-5.7042,-5.7081,-5.7159,-5.7165,-5.7193,-5.7202,-5.721,-5.7218,-5.726,-5.7273,-5.7136,-5.7136,-5.7135,0,0,-5.6719,-5.6745,-5.6774,-5.6833,-5.6857,-5.6903,-5.6868,-5.6918,-5.6952,-5.6932,-5.6995,-5.701,-5.7042,-5.7114,-5.7146,-5.7128,-5.7257,-5.7218,-5.7223,-5.7227,-5.7267,-5.728,-5.7292,-5.714,-5.7139,-5.7138,0,0,-5.6804,-5.6828,-5.6885,-5.691,-5.6947,-5.6957,-5.697,-5.7004,-5.7014,-5.7077,-5.7063,-5.7103,-5.7175,-5.7199,-5.722,-5.7315,-5.7301,-5.7328,-5.7376,-5.7417,-5.7428,-5.7437,-5.7472,-5.7484,-5.7335,-5.7335,-5.7335,0,-5.6839,-5.6911,-5.6915,-5.6968,-5.6994,-5.698,-5.7037,-5.7061,-5.7108,-5.7126,-5.7105,-5.7196,-5.7216,-5.7294,-5.7317,-5.7335,-5.735,-5.7324,-5.7426,-5.7436,-5.7445,-5.7477,-5.749,-5.7338,-5.7338,-5.7338,-5.7337,0,-5.6953,-5.7003,-5.7044,-5.7093,-5.7124,-5.7178,-5.719,-5.722,-5.7217,-5.7229,-5.7294,-5.7318,-5.7363,-5.7381,-5.7378,-5.7458,-5.7446,-5.7426,-5.7389,-5.7461,-5.7491,-5.7504,-5.7342,-5.7341,-5.7341,-5.734,0,0,-5.7058,-5.711,-5.7125,-5.7148,-5.7188,-5.7226,-5.7279,-5.7325,-5.7351,-5.7384,-5.7428,-5.749,-5.7473,-5.7497,-5.7496,-5.7533,-5.7607,-5.7508,-5.7509,-5.7526,-5.7697,-5.7712,-5.7726,-5.7598,-5.76,-5.7602,-5.7694,0,-5.7146,-5.7243,-5.7249,-5.7335,-5.7381,-5.7369,-5.7416,-5.7445,-5.7457,-5.7496,-5.7509,-5.7553,-5.7526,-5.7541,-5.7576,-5.759,-5.7641,-5.7583,-5.7638,-5.764,-5.7631,-5.7742,-5.7758,-5.7843,-5.7706,-5.7708,-5.7709,0,-5.7262,-5.7301,-5.7393,-5.7428,-5.7448,-5.749,-5.7533,-5.7571,-5.7603,-5.7609,-5.7638,-5.7632,-5.7686,-5.7647,-5.7721,-5.7682,-5.7704,-5.7715,-5.7718,-5.7723,-5.7679,-5.775,-5.7871,-5.7884,-5.7728,-5.7727,-5.7725,0,-5.733,-5.7405,-5.7471,-5.749,-5.7532,-5.7562,-5.7581,-5.7611,-5.7639,-5.7675,-5.7693,-5.7735,-5.7757,-5.7789,-5.7795,-5.7766,-5.7869,-5.783,-5.7875,-5.7875,-5.7897,-5.7895,-5.8023,-5.7911,-5.7911,-5.7911,-5.791,0,-5.7427,-5.7484,-5.7502,-5.7542,-5.7606,-5.7611,-5.7673,-5.7689,-5.7716,-5.7758,-5.7749,-5.7789,-5.7794,-5.7834,-5.7838,-5.7899,-5.7909,-5.7915,-5.7915,-5.7916,-5.7915,-5.7931,-5.7925,-5.7914,-5.7913,-5.7913,-5.7912,0,-5.7514,-5.7529,-5.7599,-5.7634,-5.7644,-5.7689,-5.7718,-5.7756,-5.7768,-5.7821,-5.7834,-5.7851,-5.7898,-5.7907,-5.7962,-5.7965,-5.8037,-5.8032,-5.8027,-5.8027,-5.8071,-5.8067,-5.8213,-5.8232,-5.8108,-5.8109,-5.811,0,-5.7576,-5.762,-5.766,-5.7689,-5.771,-5.7756,-5.7785,-5.7791,-5.7821,-5.7862,-5.7895,-5.7941,-5.7979,-5.8055,-5.8071,-5.8113,-5.8108,-5.8157,-5.8114,-5.8114,-5.8109,-5.8107,-5.8111,-5.8165,-5.8166,-5.8167,-5.8168,0,-5.7684,-5.7689,-5.7732,-5.7778,-5.7813,-5.7849,-5.7882,-5.7906,-5.7917,-5.7951,-5.8,-5.8029,-5.8087,-5.8133,-5.8175,-5.8192,-5.8182,-5.8181,-5.8194,-5.8195,-5.8191,-5.8194,-5.805,-5.8178,-5.8177,-5.8176,-5.8176,-5.8175,-5.776,-5.7799,-5.7834,-5.7882,-5.7909,-5.7941,-5.7979,-5.7996,-5.8038,-5.8087,-5.8088,-5.8142,-5.8173,-5.8229,-5.8249,-5.829,-5.8274,-5.8292,-5.8297,-5.8302,-5.8306,-5.8185,-5.8297,-5.8297,-5.8297,-5.8297,-5.8296,0,-5.7868,-5.7891,-5.7935,-5.7984,-5.8022,-5.8011,-5.8048,-5.808,-5.8128,-5.8159,-5.8197,-5.8254,-5.8299,-5.8319,-5.8363,-5.8392,-5.8389,-5.8404,-5.8402,-5.8406,-5.8317,-5.8302,-5.8406,-5.8406,-5.8406,-5.8406,-5.8406,-5.8406,-5.7929,-5.7994,-5.8004,-5.8083,-5.8104,-5.8159,-5.8181,-5.821,-5.8235,-5.83,-5.8338,-5.8352,-5.8378,-5.8425,-5.8465,-5.847,-5.8486,-5.8504,-5.8506,-5.8423,-5.8412,-5.8401,-5.8387,-5.8507,-5.8507,-5.8591,-5.8592,-5.8593]}]]